Weather in Vytiazivka

Ukraine / Kirovohrad Region     48°00′39″N   31°52′49″E
temp.,
°C
wind,
m/s
gust,
m/s
humid.,
%
clouds,
%
prec.,
mm/h
press.,
hPa
HPBL,
m
12 april, mon
mon1200:00+8nne485980 0.0 1025131
03:00+7n4863100 0.0 1024139
06:00+6n4106699 0.0 1023189
09:00+9ne5861100 0.0 1022452
12:00+8nne458076 0.0 1022392
15:00+11ne4469100 0.0 1021759
18:00+11ne2475100 0.0 1021328
21:00+10nne2279100 0.0 102152
13 april, tue
tue1300:00+9nw1181100 0.0 102011
03:00+9w0184100 0.0 102010
06:00+9se1186100 0.0 102010
09:00+9sse2485100 0.0 1020206
12:00+10sse3480100 0.0 1020460
15:00+10sse3583100 0.1 1020585
18:00+9sse358598 0.0 1019515
21:00+7sse229375 0.0 102029
14 april, wed
wed1400:00+7s2690100 0.0 1019252
03:00+7s2589100 0.0 1018186
06:00+5sse22917 0.0 101823
09:00+9sse4579100 0.0 1018359
12:00+11sse4670100 0.0 1017971
15:00+15sse455264 0.1 10151741
18:00+12sw2363100 0.1 101469
21:00+11nne1166100 0.1 101510
15 april, thu
thu1500:00+10w0174100 0.1 101412
03:00+9ssw1179100 0.1 101426
06:00+9ese358761 0.1 1013150
09:00+11ese457599 0.1 1013402
12:00+13se4459100 0.0 1013932
15:00+14sw4364100 0.1 1012959
18:00+10wsw5685100 0.3 1012355
21:00+9wnw5887100 0.6 1012273
16 april, fri
fri1600:00+10nw4790100 0.8 1011297
03:00+10nnw3693100 1.9 1010273
06:00+9nne3595100 0.8 1010227
09:00+9nne458498 0.8 1010533
12:00+12nne4469100 0.1 10101004
15:00+13nne346298 0.3 10101264
18:00+12nne447162 0.5 1010833
21:00+8ne239297 0.6 101297